Location: Pine Mountain Observatory
(43.7910°N, 120.9377°W)
Time: 04:17:28
(UTC-07:00)

Vanguard 1 Rocket - Pass Details

Date: 25 May 2019
Orbit: 652 x 4224 km, 34.3° (Epoch: 19 June)

Event Time Altitude Azimuth Distance (km) Brightness Sun altitude
Exits shadow 03:43:27 23° 224° (SW) 1,865 8.4 -15.3°
Maximum altitude 03:46:39 39° 170° (S) 1,596 8.3 -14.9°
Drops below altitude 10° 03:55:15 10° 106° (ESE) 4,054 11.0 -13.9°
Sets 03:59:58 0° 100° (E) 5,655 11.9 -13.3°
